TimeCDT,TemperatureF,Dew PointF,Humidity,Sea Level PressureIn,VisibilityMPH,Wind Direction,Wind SpeedMPH,Gust SpeedMPH,PrecipitationIn,Events,Conditions,WindDirDegrees,DateUTC
12:15 AM,59.0,58.1,97,29.76,5.0,NNE,4.6,-,N/A,,Clear,20,2012-10-24 05:15:00
12:35 AM,58.5,57.6,97,29.77,5.0,North,5.8,-,N/A,,Clear,10,2012-10-24 05:35:00
12:55 AM,58.3,57.4,97,29.76,4.0,North,4.6,-,N/A,,Clear,10,2012-10-24 05:55:00
1:15 AM,57.7,57.2,98,29.77,4.0,Calm,Calm,-,N/A,,Clear,0,2012-10-24 06:15:00
1:35 AM,57.7,57.2,98,29.77,4.0,Calm,Calm,-,N/A,,Clear,0,2012-10-24 06:35:00
1:55 AM,58.3,58.1,99,29.77,4.0,Calm,Calm,-,N/A,,Clear,0,2012-10-24 06:55:00
2:15 AM,58.3,58.1,99,29.76,4.0,Calm,Calm,-,N/A,,Clear,0,2012-10-24 07:15:00
2:35 AM,57.6,57.4,99,29.76,3.0,Calm,Calm,-,N/A,,Clear,0,2012-10-24 07:35:00
2:55 AM,57.6,57.4,99,29.75,2.5,Calm,Calm,-,N/A,,Clear,0,2012-10-24 07:55:00
3:15 AM,57.2,57.2,100,29.75,0.5,Calm,Calm,-,N/A,Fog,Fog,0,2012-10-24 08:15:00
3:35 AM,57.6,57.6,100,29.75,1.0,Calm,Calm,-,N/A,,Mist,0,2012-10-24 08:35:00
3:55 AM,55.9,55.9,100,29.75,0.5,Calm,Calm,-,N/A,Fog,Fog,0,2012-10-24 08:55:00
4:15 AM,55.8,55.8,100,29.75,0.8,Calm,Calm,-,N/A,,Mist,0,2012-10-24 09:15:00
4:35 AM,54.5,54.5,100,29.75,0.2,Calm,Calm,-,N/A,Fog,Fog,0,2012-10-24 09:35:00
4:55 AM,55.4,55.4,100,29.75,0.5,NNE,3.5,-,N/A,Fog,Fog,30,2012-10-24 09:55:00
5:15 AM,56.3,56.3,100,29.75,1.5,Calm,Calm,-,N/A,,Overcast,0,2012-10-24 10:15:00
5:35 AM,57.0,57.0,100,29.75,2.0,Calm,Calm,-,N/A,,Overcast,0,2012-10-24 10:35:00
5:55 AM,57.2,57.2,100,29.75,2.0,Calm,Calm,-,N/A,,Overcast,0,2012-10-24 10:55:00
6:15 AM,57.4,57.4,100,29.75,2.0,Calm,Calm,-,N/A,,Overcast,0,2012-10-24 11:15:00
6:35 AM,57.4,57.4,100,29.75,2.0,Calm,Calm,-,N/A,,Overcast,0,2012-10-24 11:35:00
6:55 AM,57.6,57.6,100,29.74,0.5,Calm,Calm,-,N/A,Fog,Fog,0,2012-10-24 11:55:00
7:15 AM,57.6,57.6,100,29.75,0.2,Calm,Calm,-,N/A,Fog,Fog,0,2012-10-24 12:15:00
7:35 AM,57.6,57.6,100,29.75,0.2,Calm,Calm,-,N/A,Fog,Fog,0,2012-10-24 12:35:00
7:55 AM,58.3,58.3,100,29.75,0.2,Calm,Calm,-,N/A,Fog,Fog,0,2012-10-24 12:55:00
8:15 AM,58.8,58.8,100,29.74,0.2,Calm,Calm,-,N/A,Fog,Fog,0,2012-10-24 13:15:00
8:35 AM,61.7,61.7,100,29.74,0.2,Calm,Calm,-,N/A,Fog,Fog,0,2012-10-24 13:35:00
8:55 AM,62.8,62.8,100,29.74,0.2,Calm,Calm,-,N/A,Fog,Fog,0,2012-10-24 13:55:00
9:15 AM,63.9,63.9,100,29.74,1.2,Calm,Calm,-,N/A,,Overcast,0,2012-10-24 14:15:00
9:35 AM,64.8,64.8,100,29.74,2.5,South,11.5,-,N/A,,Overcast,170,2012-10-24 14:35:00
9:55 AM,65.8,65.8,100,29.74,4.0,South,8.1,-,N/A,,Mostly Cloudy,170,2012-10-24 14:55:00
10:15 AM,67.6,67.6,100,29.74,10.0,South,17.3,-,N/A,,Overcast,190,2012-10-24 15:15:00
10:35 AM,68.5,68.0,98,29.74,10.0,SSW,12.7,-,N/A,,Overcast,200,2012-10-24 15:35:00
10:55 AM,69.3,67.6,95,29.74,10.0,SSW,15.0,-,N/A,,Overcast,210,2012-10-24 15:55:00
11:15 AM,70.9,68.0,91,29.74,10.0,SSW,15.0,20.7,N/A,,Overcast,210,2012-10-24 16:15:00
11:35 AM,72.9,66.2,80,29.74,10.0,WSW,18.4,25.3,N/A,,Mostly Cloudy,240,2012-10-24 16:35:00
11:55 AM,73.4,64.2,73,29.74,10.0,SW,16.1,21.9,N/A,,Mostly Cloudy,230,2012-10-24 16:55:00
12:15 PM,73.2,62.6,69,29.74,10.0,SW,12.7,17.3,N/A,,Overcast,230,2012-10-24 17:15:00
12:35 PM,72.5,63.5,73,29.74,10.0,WSW,6.9,-,N/A,,Overcast,250,2012-10-24 17:35:00
12:55 PM,73.2,64.0,73,29.73,10.0,WNW,9.2,-,N/A,,Mostly Cloudy,300,2012-10-24 17:55:00
1:15 PM,70.0,63.3,79,29.73,7.0,NW,6.9,-,N/A,,Mostly Cloudy,310,2012-10-24 18:15:00
1:35 PM,68.5,62.1,80,29.73,5.0,NW,9.2,-,N/A,,Haze,320,2012-10-24 18:35:00
1:55 PM,70.0,62.8,78,29.72,5.0,NW,9.2,-,N/A,,Haze,320,2012-10-24 18:55:00
2:15 PM,69.4,61.5,76,29.71,5.0,NW,8.1,-,N/A,,Haze,320,2012-10-24 19:15:00
2:35 PM,70.7,61.7,73,29.71,7.0,WNW,6.9,-,N/A,,Scattered Clouds,300,2012-10-24 19:35:00
2:55 PM,69.8,61.0,73,29.71,10.0,NW,8.1,-,N/A,,Overcast,320,2012-10-24 19:55:00
3:15 PM,69.4,61.0,74,29.70,10.0,NW,6.9,-,N/A,,Mostly Cloudy,310,2012-10-24 20:15:00
3:35 PM,69.4,60.8,74,29.69,10.0,NNW,9.2,-,N/A,,Mostly Cloudy,330,2012-10-24 20:35:00
4:15 PM,66.7,59.4,77,29.69,7.0,NNW,11.5,16.1,N/A,,Mostly Cloudy,340,2012-10-24 21:15:00
4:35 PM,64.0,58.6,83,29.70,4.0,North,10.4,-,N/A,,Haze,350,2012-10-24 21:35:00
4:55 PM,63.0,58.1,84,29.71,5.0,NNW,12.7,-,N/A,,Haze,340,2012-10-24 21:55:00
5:15 PM,63.0,57.7,83,29.71,7.0,North,10.4,-,N/A,,Mostly Cloudy,350,2012-10-24 22:15:00
5:35 PM,62.2,57.4,84,29.71,7.0,North,12.7,-,N/A,,Mostly Cloudy,350,2012-10-24 22:35:00
5:55 PM,61.2,57.0,86,29.72,7.0,NNW,11.5,-,N/A,,Overcast,340,2012-10-24 22:55:00
6:15 PM,59.0,56.3,91,29.72,7.0,North,10.4,-,N/A,,Mostly Cloudy,350,2012-10-24 23:15:00
6:35 PM,57.9,55.8,92,29.71,7.0,North,15.0,-,N/A,,Mostly Cloudy,350,2012-10-24 23:35:00
6:55 PM,56.8,55.4,95,29.71,7.0,North,10.4,-,N/A,,Overcast,10,2012-10-24 23:55:00
7:15 PM,56.3,54.7,94,29.71,7.0,North,11.5,-,N/A,,Overcast,360,2012-10-25 00:15:00
7:35 PM,55.8,54.5,96,29.71,7.0,North,11.5,-,N/A,,Overcast,10,2012-10-25 00:35:00
7:55 PM,55.6,54.5,96,29.71,5.0,North,9.2,-,N/A,,Overcast,10,2012-10-25 00:55:00
8:15 PM,55.4,54.5,97,29.72,4.0,North,12.7,-,N/A,,Overcast,360,2012-10-25 01:15:00
8:35 PM,54.9,53.8,96,29.72,3.0,NNW,10.4,-,N/A,,Overcast,340,2012-10-25 01:35:00
8:55 PM,54.3,53.4,97,29.72,3.0,North,9.2,-,N/A,,Overcast,360,2012-10-25 01:55:00
9:15 PM,53.8,53.1,97,29.72,3.0,North,13.8,-,N/A,,Overcast,360,2012-10-25 02:15:00
9:35 PM,53.6,52.7,97,29.72,3.0,North,12.7,-,N/A,,Overcast,10,2012-10-25 02:35:00
9:55 PM,53.2,52.7,98,29.72,3.0,North,15.0,-,N/A,,Overcast,360,2012-10-25 02:55:00
10:15 PM,52.9,52.2,97,29.73,4.0,North,11.5,16.1,N/A,,Overcast,350,2012-10-25 03:15:00
10:35 PM,52.7,52.0,97,29.74,4.0,North,12.7,-,N/A,,Overcast,350,2012-10-25 03:35:00
10:55 PM,52.7,51.8,97,29.74,4.0,North,12.7,17.3,N/A,Rain,Rain,350,2012-10-25 03:55:00
11:15 PM,52.2,51.4,97,29.74,3.0,North,13.8,17.3,N/A,,Overcast,360,2012-10-25 04:15:00
11:35 PM,50.7,50.2,98,29.73,4.0,North,15.0,-,N/A,Rain,Light Rain,350,2012-10-25 04:35:00
11:55 PM,50.2,49.8,99,29.72,3.0,North,11.5,-,N/A,,Overcast,360,2012-10-25 04:55:00